Dewpoint
22 27 28 31 32 32 31 31 29 27 26 26 25 25 25 26 27 28 30 30 31 32 31 35 38 42 45 48 49 48 48 48 49 52 54 54 54 55
17 18 21 23 26 29 31 31 30 28 25 25 25 24 23 23 24 25 27 30 30 30 33 37 37 41 43 46 49 49 48 48 47 48 50 52 52 53
18 18 18 20 20 22 25 28 28 28 26 24 25 25 23 23 23 24 27 26 28 29 31 33 38 37 42 45 47 49 49 48 47 47 49 49 50 51
18 18 18 18 19 20 22 24 26 27 26 23 23 22 22 23 23 25 25 25 25 27 30 32 34 38 42 44 46 47 49 49 48 47 48 49 48 48
20 19 20 21 21 21 21 23 25 26 25 22 22 22 24 25 25 25 25 26 25 27 30 32 35 37 41 43 46 48 48 49 48 48 49 48 47 47
22 23 23 24 24 25 25 25 24 25 25 24 23 23 24 25 25 25 25 26 26 26 26 30 33 34 38 38 39 44 46 48 49 48 49 48 48 47
23 23 24 25 26 28 25 26 26 27 26 24 23 23 24 25 25 25 25 25 27 27 27 28 29 30 30 34 39 42 45 46 48 48 47 48 47 45
23 23 23 25 24 23 23 26 27 28 28 29 26 24 24 25 25 24 25 27 26 29 27 27 33 33 35 35 34 36 40 41 42 46 47 46 46 45
22 22 22 21 23 23 23 23 24 25 27 29 29 26 25 26 25 25 26 27 27 28 28 26 30 30 31 29 31 33 37 41 41 43 44 44 45 45
23 22 22 21 22 22 22 24 25 27 29 30 28 25 26 28 28 28 28 28 29 29 29 26 27 28 29 29 30 33 34 37 41 43 44 44 44 44
23 23 22 22 22 22 23 24 25 27 28 29 29 28 30 30 30 31 30 29 28 28 29 27 28 30 30 30 31 30 33 37 40 42 43 44 44 44
23 23 22 22 23 24 25 26 26 26 30 28 27 26 27 29 31 32 32 30 29 27 28 27 29 30 27 26 31 29 33 36 39 40 41 43 43 44
27 26 24 24 24 24 25 26 27 27 27 28 28 27 26 27 28 29 30 30 30 29 29 28 31 30 28 27 28 29 30 33 32 38 39 40 41 41
24 25 28 29 31 31 29 27 28 28 28 28 29 28 27 27 28 29 30 29 30 28 31 29 32 32 30 28 27 27 28 31 32 34 38 39 40 40
24 23 23 25 26 27 29 31 29 28 28 27 27 27 27 28 30 30 31 31 32 32 32 32 32 33 31 29 27 26 26 28 29 28 33 37 38 38
26 28 28 27 25 24 26 29 29 29 29 28 27 27 28 29 29 30 29 31 29 31 33 34 34 34 31 30 29 28 27 27 27 29 31 32 36 37
25 25 23 24 22 24 27 27 30 29 29 29 28 28 28 29 28 29 29 30 29 28 28 33 33 33 32 30 28 28 27 27 28 31 31 30 30 33
23 22 21 21 21 21 22 26 29 29 28 29 29 29 28 28 29 30 30 28 25 26 26 30 32 30 30 29 30 27 26 27 28 27 29 30 29 31
22 22 22 22 22 22 22 22 24 27 28 31 30 29 29 29 28 28 28 27 27 27 27 29 27 27 23 22 24 30 28 28 26 27 28 30 30 31
22 21 22 23 23 24 24 23 23 24 26 29 30 30 30 29 28 27 28 28 28 26 27 27 26 26 25 23 22 24 29 29 31 29 26 28 32 34
23 23 23 23 24 25 25 25 25 24 24 26 27 30 30 29 28 28 29 28 26 28 27 26 27 28 28 27 25 23 24 26 29 26 26 26 29 30
23 24 24 25 25 25 25 26 26 25 25 25 26 28 29 29 28 28 28 28 28 29 29 28 30 28 26 26 24 24 24 25 29 30 31 30 30 27
24 25 25 26 26 26 27 26 26 26 25 25 25 26 29 29 29 28 28 28 28 28 28 28 29 28 27 26 25 25 25 25 27 27 28 33 35 34
Wind_Speed
16 16 17 15 16 16 17 17 20 26 23 17 18 15 16 17 18 19 15 18 27 31 30 29 25 24 25 24 23 20 17 15 14 14 12 11 12 13
16 18 17 17 17 17 18 18 19 22 28 18 17 16 16 17 18 20 21 20 23 27 31 27 27 24 23 24 23 22 19 16 15 17 16 15 16 16
18 20 20 20 19 19 18 19 21 21 23 24 19 16 17 18 17 16 19 20 18 22 25 30 26 25 24 23 22 22 21 20 17 16 17 17 17 16
21 21 22 20 22 21 20 22 22 21 21 24 24 19 17 15 17 17 17 18 21 22 26 26 30 27 23 23 24 22 21 20 18 17 17 15 15 15
22 23 23 22 23 21 21 21 22 21 20 20 22 21 16 15 16 17 17 18 19 23 26 24 29 31 28 24 22 22 22 22 17 15 17 16 15 15
22 23 23 23 24 24 22 22 22 23 23 23 21 22 17 16 14 15 17 16 17 18 17 18 22 22 22 23 23 20 19 20 19 17 16 16 15 14
24 23 23 24 26 27 23 24 24 24 24 23 21 19 18 18 16 14 16 16 15 16 16 17 16 17 20 20 21 19 18 18 17 16 16 15 15 15
26 25 22 25 25 30 30 31 28 27 27 25 23 20 21 20 18 17 18 16 15 13 15 17 11 12 14 15 18 15 10 11 12 12 14 15 16 17
25 26 25 20 23 22 26 30 30 33 33 30 28 23 24 21 19 20 20 19 19 16 15 17 11 14 12 13 16 18 17 13 14 15 15 17 17 17
23 24 26 25 22 24 24 24 24 24 24 19 22 21 20 19 19 20 20 19 18 17 14 19 15 15 11 11 16 20 21 17 17 17 16 17 17 17
23 22 23 25 26 29 26 25 25 23 20 27 29 31 28 29 27 19 19 17 18 18 14 17 16 14 11 11 13 21 21 12 9 9 13 14 15 17
23 22 26 28 31 31 27 23 25 23 18 20 19 23 22 22 26 22 19 19 17 14 14 14 14 11 4 6 5 13 9 10 13 8 9 8 8 7
23 23 21 28 31 32 30 23 24 25 24 22 19 19 20 16 15 16 18 20 19 19 11 10 5 4 5 5 7 8 12 10 14 11 7 8 11 8
25 23 22 29 33 34 33 32 32 30 21 20 17 17 18 19 16 15 16 16 16 21 15 12 7 10 9 8 9 8 12 12 12 11 12 7 13 11
23 29 36 32 32 29 26 28 28 19 17 18 18 18 17 17 16 14 14 13 13 13 11 15 11 10 10 11 10 11 13 6 11 15 13 12 10 7
25 23 25 31 31 30 27 22 19 17 18 18 16 16 15 14 14 13 13 12 10 12 11 12 12 10 10 12 12 16 12 10 6 14 14 12 10 11
28 19 19 18 18 18 17 18 16 16 15 16 15 15 14 13 13 13 13 9 11 12 14 11 11 10 11 12 14 14 12 14 13 12 11 14 13 13
18 17 17 17 18 19 18 19 14 15 14 14 14 14 13 13 12 12 11 11 13 14 14 10 8 6 8 13 18 17 15 15 12 13 15 15 15 12
16 17 17 17 18 18 18 18 17 15 14 12 13 13 12 11 13 12 11 11 13 13 15 10 9 11 15 20 8 21 16 13 12 12 11 13 16 12
16 17 18 18 18 18 18 17 17 16 15 12 13 13 12 11 12 12 12 12 14 15 14 12 13 14 16 18 12 12 16 13 12 12 11 12 14 13
17 17 17 17 17 18 17 17 16 16 18 15 13 13 12 12 12 13 13 16 18 16 16 16 18 20 15 8 13 18 14 18 20 18 12 14 14 11
17 18 18 18 18 17 18 18 16 16 16 14 14 13 13 14 13 12 11 12 13 12 10 11 10 13 12 14 17 16 14 14 16 22 22 18 10 7
18 18 19 18 19 19 17 17 18 16 14 15 15 14 13 13 11 12 11 10 11 11 11 12 11 11 14 15 18 14 16 16 12 12 14 16 19 16
Wind_Direction
296 293 288 283 277 278 276 277 283 293 290 293 294 294 295 296 297 300 310 309 311 308 302 296 294 295 295 293 286 284 289 290 285 278 271 263 261 260
291 291 292 289 287 283 279 278 275 277 287 287 289 290 290 291 289 292 292 296 292 280 290 294 295 288 285 286 285 278 274 273 275 275 260 254 254 255
290 287 286 286 285 283 281 277 275 273 274 282 279 280 281 284 286 284 282 286 286 286 278 283 286 288 280 279 280 277 271 265 264 267 266 262 257 256
287 287 286 286 284 284 282 276 274 269 266 271 280 278 276 278 282 281 280 278 287 289 288 280 282 282 276 279 273 272 271 263 258 259 258 258 259 257
287 286 286 288 286 283 281 281 279 275 267 268 274 279 278 276 276 275 272 273 276 283 282 276 266 273 270 270 268 265 264 259 256 250 248 251 259 257
292 290 288 284 280 279 279 281 285 281 270 266 264 271 274 273 271 280 280 274 276 282 296 298 298 294 287 275 270 267 263 263 249 243 241 249 253 254
289 288 285 282 284 284 283 281 276 275 278 276 267 272 275 277 274 276 278 279 278 284 285 283 280 281 280 284 271 264 260 253 251 237 234 236 240 250
291 290 289 290 287 283 284 285 278 278 272 267 269 265 269 271 273 272 275 279 278 271 282 286 292 292 301 300 295 310 298 298 289 263 243 242 246 249
290 289 290 286 287 288 286 284 282 279 276 270 265 263 270 272 275 274 271 270 269 271 281 276 275 282 286 287 300 303 291 287 284 273 262 255 250 248
290 290 287 287 285 287 288 286 284 279 277 273 271 269 264 268 265 269 272 274 273 268 266 273 276 273 277 290 292 284 278 275 277 270 261 257 259 259
291 289 289 288 287 287 286 285 286 284 284 276 268 266 265 266 269 271 270 267 263 264 259 254 269 268 276 288 290 282 285 265 295 298 275 261 256 259
290 286 286 287 290 291 288 287 288 286 277 282 278 274 265 259 262 261 258 257 253 264 253 252 266 260 265 258 333 334 329 323 325 320 326 321 305 272
295 293 286 288 291 290 289 282 280 284 283 277 275 274 272 263 258 258 257 251 241 242 240 240 246 240 241 270 284 303 307 330 324 309 306 317 301 268
307 305 303 305 298 296 294 286 284 284 280 280 270 268 266 266 253 252 258 266 263 255 244 241 219 218 240 266 271 290 304 302 315 311 295 273 290 283
304 302 306 304 298 296 294 298 286 279 275 267 265 265 260 259 257 263 266 266 265 249 247 257 226 212 224 246 266 268 288 283 289 288 291 300 288 290
296 293 294 299 293 291 288 281 270 268 264 265 265 265 262 256 254 251 254 255 260 258 250 226 240 200 228 245 259 266 264 264 301 298 294 300 289 271
321 316 314 311 312 310 296 293 267 262 261 263 264 261 258 252 243 245 246 242 255 255 257 229 222 218 223 233 251 259 265 264 268 264 275 281 282 283
328 320 316 316 314 317 314 315 293 277 267 264 263 262 261 254 246 237 235 230 251 256 249 233 202 213 257 256 233 261 264 258 259 275 281 273 279 272
325 322 319 317 315 311 311 312 308 301 289 268 269 266 264 266 267 260 242 232 229 248 258 220 215 229 253 261 241 215 241 244 255 261 263 267 272 273
328 325 322 321 318 315 310 307 306 306 302 290 274 266 254 256 257 250 238 239 230 232 229 219 221 221 234 248 267 267 236 250 236 250 273 280 272 277
328 325 325 322 319 318 315 309 302 298 298 291 285 266 248 245 250 244 239 237 244 236 223 222 222 224 228 248 259 264 259 241 236 250 257 263 277 275
330 329 328 325 322 320 320 317 304 298 298 287 292 276 261 247 240 246 240 247 254 259 233 236 232 230 228 234 254 261 265 260 242 240 246 236 239 249
332 331 330 330 330 327 319 317 317 302 292 292 291 289 269 256 232 236 242 249 250 247 245 240 225 219 229 234 246 251 255 254 242 244 262 243 239 235